Location: LDNL
(36.4545°S, 141.6685°E)
Time: 13:19:08
(UTC+11:00)

Transit 2A Rocket - All Passes

Search period start: 23 January 2022 00:00
Search period end: 02 February 2022 00:00
Orbit: 584 x 918 km, 66.7° (Epoch: 22 January)

Date Brightness Start Highest point End Pass type
(mag) Time Alt. Az. Time Alt. Az. Time Alt. Az.
23 Jan - 08:12:27 10° N 08:16:35 41° ENE 08:20:38 10° SE daylight
23 Jan - 09:56:22 10° W 09:59:15 17° SW 10:02:08 10° S daylight
23 Jan - 16:57:34 10° S 17:01:15 21° SE 17:05:09 10° ENE daylight
23 Jan - 18:39:13 10° SW 18:43:56 46° WNW 18:49:03 10° N daylight
24 Jan - 07:30:48 10° NNE 07:34:04 20° ENE 07:37:17 10° ESE daylight
24 Jan - 09:12:29 10° WNW 09:16:21 31° SW 09:20:12 10° S daylight
24 Jan - 16:16:12 10° SSE 16:18:15 12° SE 16:20:22 10° ESE daylight
24 Jan - 17:56:22 10° SSW 18:01:18 86° WNW 18:06:41 10° NNE daylight
25 Jan - 08:29:15 10° NW 08:33:35 60° WSW 08:37:51 10° SSE daylight
25 Jan - 17:13:48 10° SSW 17:18:35 52° ESE 17:23:48 10° NE daylight
25 Jan - 18:57:34 10° WSW 19:00:48 17° WNW 19:04:13 10° NNW daylight
26 Jan - 07:46:34 10° NNW 07:50:55 66° ENE 07:55:11 10° SSE daylight
26 Jan - 09:32:14 10° WSW 09:33:52 12° SW 09:35:31 10° SSW daylight
26 Jan - 16:31:31 10° S 16:35:48 30° SE 16:40:24 10° ENE daylight
26 Jan - 18:13:53 10° SW 18:18:17 31° WNW 18:23:01 10° N daylight
27 Jan - 07:04:28 10° N 07:08:21 31° ENE 07:12:10 10° SE daylight
27 Jan - 08:47:33 10° WNW 08:50:52 21° SW 08:54:11 10° S daylight
27 Jan - 15:49:35 10° S 15:52:53 18° SE 15:56:21 10° E daylight
27 Jan - 17:30:49 10° SW 17:35:42 58° WNW 17:41:01 10° NNE daylight
28 Jan - 06:23:13 10° NE 06:25:52 16° ENE 06:28:29 10° ESE daylight
28 Jan - 08:03:57 10° NW 08:08:01 39° WSW 08:12:04 10° SSE daylight
28 Jan - 15:09:12 10° SE 15:09:50 10° SE 15:10:29 10° SE daylight
28 Jan - 16:48:05 10° SSW 16:53:02 77° ESE 16:58:27 10° NNE daylight
28 Jan - 18:33:30 10° W 18:35:04 11° WNW 18:36:41 10° WNW daylight
29 Jan - 07:20:55 10° NNW 07:25:17 79° WSW 07:29:37 10° SSE daylight
29 Jan - 16:05:37 10° SSW 16:10:18 42° ESE 16:15:23 10° NE daylight
29 Jan - 17:48:47 10° WSW 17:52:36 22° WNW 17:56:41 10° NNW daylight
30 Jan - 06:38:26 10° N 06:42:39 50° ENE 06:46:50 10° SE daylight
30 Jan - 08:23:00 10° W 08:25:27 15° SW 08:27:54 10° SSW daylight
30 Jan - 15:23:25 10° S 15:27:28 25° SE 15:31:46 10° ENE daylight
30 Jan - 17:05:24 10° SW 17:10:04 39° WNW 17:15:07 10° N daylight
31 Jan - 05:56:35 10° NNE 06:00:07 24° ENE 06:03:37 10° SE visible
31 Jan - 07:38:51 10° WNW 07:42:30 26° SW 07:46:09 10° S daylight
31 Jan - 14:41:44 10° SSE 14:44:30 15° SE 14:47:23 10° E daylight
31 Jan - 16:22:28 10° SSW 16:27:26 73° WNW 16:32:53 10° NNE daylight
01 Feb - 05:16:00 10° NE 05:17:41 12° ENE 05:19:21 10° E visible
01 Feb - 06:55:29 10° NW 06:59:41 50° WSW 07:03:54 10° SSE daylight
01 Feb - 15:39:49 10° SSW 15:44:45 62° ESE 15:50:08 10° NE daylight
01 Feb - 17:24:04 10° WSW 17:26:54 15° WNW 17:29:50 10° NW daylight
